This demonstration page uses our WeatherBlox Daily Observations layout. Learn more.

Left ArrowRight Arrow

39.12711, -84.51439

Hourly Observations for August 23, 2018

Temp ( °F °C ) Dew Point ( °F °C ) Humidity (%) Winds ( mph kmh ) Pressure ( in mb ) Visibility ( mi km ) Precip ( " mm )
12:53 am 00:53 Clear 59 15 58 14.4 96 96 N N/A 30.12 1020 10 16 N/A
1:53 am 01:53 Clear 57 13.9 57 13.9 100 100 N N/A 30.12 1020 10 16 N/A
2:53 am 02:53 Clear 56 13.3 56 13.3 100 100 N N/A 30.12 1020 8 13 N/A
3:53 am 03:53 Clear 57 13.9 57 13.9 100 100 N N/A 30.12 1020 9 14 N/A
4:33 am 04:33 Clear with Mist and Fog 56 13.3 56 13.3 100 100 N N/A 30.15 1021 2 2 N/A
4:41 am 04:41 Clear with Mist and Fog 54 12.2 54 12.2 100 100 NE 3 6 30.15 1021 1 1 N/A
4:46 am 04:46 Clear with Mist and Fog 54 12.2 54 12.2 100 100 N N/A 30.15 1021 2 3 N/A
4:53 am 04:53 Clear with Mist and Fog 55 12.8 55 12.8 100 100 N N/A 30.14 1021 5 8 N/A
5:53 am 05:53 Clear 55 12.8 55 12.8 100 100 N N/A 30.15 1021 10 16 N/A
6:37 am 06:37 Clear with Mist and Fog 54 12.2 54 12.2 100 100 N N/A 30.18 1022 2 3 N/A
6:44 am 06:44 Clear with Mist and Fog 54 12.2 54 12.2 100 100 N N/A 30.18 1022 3 5 N/A
6:53 am 06:53 Partly Cloudy with Patchy Fog 54 12.2 54 12.2 100 100 ENE 3 6 30.16 1021 6 10 N/A
7:53 am 07:53 Partly Cloudy with Mist and Fog 56 13.3 56 13.3 100 100 ENE 3 6 30.18 1022 6 10 N/A
8:53 am 08:53 Sunny 62 16.7 60 15.6 93 93 N N/A 30.19 1023 10 16 N/A
9:53 am 09:53 Sunny 67 19.4 60 15.6 79 79 N N/A 30.19 1023 10 16 N/A
10:53 am 10:53 Sunny 72 22.2 59 15 64 64 VRB 3 6 30.19 1022 10 16 N/A
11:53 am 11:53 Sunny 73 22.8 56 13.3 55 55 SSW 3 6 30.19 1023 10 16 N/A
12:53 pm 12:53 Sunny 76 24.4 53 11.7 45 45 NW 6 9 30.18 1022 10 16 N/A
1:53 pm 13:53 Sunny 77 25 53 11.7 43 43 S 3 6 30.16 1022 10 16 N/A
2:53 pm 14:53 Sunny 77 25 52 11.1 42 42 VRB 3 6 30.16 1021 10 16 N/A
3:53 pm 15:53 Sunny 78 25.6 52 11.1 40 40 VRB 3 6 30.14 1021 10 16 N/A
4:53 pm 16:53 Mostly Sunny 79 26.1 53 11.7 41 41 E 5 7 30.12 1020 10 16 N/A
5:53 pm 17:53 Sunny 79 26.1 54 12.2 42 42 VRB 3 6 30.11 1020 10 16 N/A
6:53 pm 18:53 Mostly Sunny 78 25.6 54 12.2 43 43 NE 3 6 30.12 1020 10 16 N/A
7:53 pm 19:53 Mostly Sunny 72 22.2 63 17.2 73 73 N N/A 30.12 1020 10 16 N/A
8:53 pm 20:53 Clear 65 18.3 59 15 81 81 N N/A 30.14 1021 10 16 N/A
9:53 pm 21:53 Clear 62 16.7 59 15 90 90 N N/A 30.14 1021 10 16 N/A
10:53 pm 22:53 Clear 61 16.1 59 15 93 93 N N/A 30.14 1021 10 16 N/A
11:53 pm 23:53 Clear 60 15.6 59 15 96 96 N N/A 30.14 1021 10 16 N/A

Powered by AerisWeather